Hourly Weather Dromore

Today, 7 July, Tuesday

Time Temperature Precipitation Wind Pressure Humidity
00:00 +8°C° 0 mm 2 mps 756 mmHg 95%
01:00 +8°C° 0 mm 2 mps 755 mmHg 95%
02:00 +8°C° 0 mm 2 mps 755 mmHg 95%
03:00 +7°C° 0 mm 2 mps 755 mmHg 94%
04:00 +8°C° 0.1 mm 2 mps 754 mmHg 94%
05:00 +9°C° 0.1 mm 2 mps 754 mmHg 94%
06:00 +9°C° 0 mm 2 mps 753 mmHg 95%
07:00 +9°C° 0.4 mm 2 mps 753 mmHg 95%
08:00 +9°C° 0.4 mm 2 mps 753 mmHg 95%
09:00 +10°C° 0.4 mm 2 mps 753 mmHg 95%
10:00 +10°C° 0.3 mm 2 mps 752 mmHg 95%
11:00 +10°C° 0.3 mm 2 mps 752 mmHg 95%
12:00 +10°C° 0.3 mm 2 mps 752 mmHg 96%
13:00 +10°C° 0.1 mm 2 mps 751 mmHg 95%
14:00 +10°C° 0.1 mm 2 mps 751 mmHg 95%
15:00 +12°C° 0.1 mm 2 mps 751 mmHg 94%
16:00 +12°C° 0.1 mm 2 mps 750 mmHg 94%
17:00 +12°C° 0.1 mm 2 mps 750 mmHg 94%
18:00 +12°C° 0.1 mm 2 mps 749 mmHg 95%
19:00 +12°C° 0.1 mm 2 mps 750 mmHg 95%
20:00 +10°C° 0.1 mm 2 mps 750 mmHg 96%
21:00 +10°C° 0.1 mm 2 mps 750 mmHg 96%
22:00 +10°C° 0 mm 2 mps 751 mmHg 96%
23:00 +10°C° 0 mm 2 mps 751 mmHg 95%

Tomorrow, 8 July, Wednesday

Time Temperature Precipitation Wind Pressure Humidity
00:00 +9°C° 0 mm 2 mps 751 mmHg 95%
01:00 +9°C° 0 mm 2 mps 751 mmHg 94%
02:00 +9°C° 0 mm 2 mps 751 mmHg 94%
03:00 +9°C° 0 mm 1 mps 751 mmHg 94%
04:00 +9°C° 0 mm 1 mps 751 mmHg 93%
05:00 +10°C° 0 mm 1 mps 751 mmHg 93%
06:00 +10°C° 0 mm 1 mps 751 mmHg 92%
07:00 +12°C° 0 mm 1 mps 751 mmHg 87%
08:00 +13°C° 0 mm 1 mps 751 mmHg 83%
09:00 +14°C° 0 mm 1 mps 752 mmHg 78%
10:00 +15°C° 0 mm 1 mps 752 mmHg 76%
11:00 +16°C° 0 mm 1 mps 752 mmHg 74%
12:00 +16°C° 0 mm 1 mps 751 mmHg 72%
13:00 +16°C° 0.1 mm 2 mps 751 mmHg 73%
14:00 +16°C° 0.1 mm 2 mps 751 mmHg 74%
15:00 +16°C° 0.1 mm 2 mps 751 mmHg 76%
16:00 +15°C° 0.3 mm 2 mps 751 mmHg 80%
17:00 +15°C° 0.3 mm 2 mps 750 mmHg 85%
18:00 +14°C° 0.3 mm 2 mps 750 mmHg 90%
19:00 +13°C° 0.1 mm 2 mps 750 mmHg 92%
20:00 +12°C° 0.1 mm 1 mps 750 mmHg 93%
21:00 +11°C° 0.1 mm 1 mps 750 mmHg 95%
22:00 +11°C° 0 mm 1 mps 750 mmHg 95%
23:00 +10°C° 0 mm 1 mps 750 mmHg 95%

Day after tomorrow, 9 July, Thursday

Time Temperature Precipitation Wind Pressure Humidity
00:00 +10°C° 0 mm 1 mps 749 mmHg 95%
01:00 +9°C° 0 mm 1 mps 749 mmHg 95%
02:00 +9°C° 0 mm 1 mps 749 mmHg 95%
03:00 +9°C° 0 mm 1 mps 749 mmHg 95%
04:00 +8°C° 0 mm 2 mps 749 mmHg 95%
05:00 +9°C° 0 mm 2 mps 749 mmHg 94%
06:00 +10°C° 0 mm 2 mps 749 mmHg 94%
07:00 +12°C° 0 mm 2 mps 749 mmHg 93%
08:00 +12°C° 0 mm 3 mps 749 mmHg 91%
09:00 +13°C° 0 mm 3 mps 749 mmHg 89%
10:00 +13°C° 0.1 mm 3 mps 749 mmHg 88%
11:00 +14°C° 0.1 mm 2 mps 749 mmHg 88%
12:00 +14°C° 0.1 mm 2 mps 749 mmHg 87%
13:00 +14°C° 0.1 mm 3 mps 749 mmHg 85%
14:00 +14°C° 0.1 mm 3 mps 750 mmHg 84%
15:00 +14°C° 0.1 mm 3 mps 750 mmHg 82%
16:00 +14°C° 0.1 mm 4 mps 750 mmHg 79%
17:00 +14°C° 0.1 mm 5 mps 750 mmHg 76%
18:00 +13°C° 0.1 mm 6 mps 750 mmHg 74%
19:00 +12°C° 0 mm 5 mps 750 mmHg 77%
20:00 +9°C° 0 mm 5 mps 751 mmHg 80%
21:00 +8°C° 0 mm 4 mps 751 mmHg 83%
22:00 +7°C° 0 mm 4 mps 751 mmHg 85%
23:00 +7°C° 0 mm 5 mps 751 mmHg 87%

10 July, Friday

Time Temperature Precipitation Wind Pressure Humidity
00:00 +6°C° 0 mm 5 mps 752 mmHg 88%
01:00 +7°C° 0 mm 5 mps 752 mmHg 88%
02:00 +7°C° 0 mm 5 mps 752 mmHg 89%
03:00 +7°C° 0 mm 5 mps 752 mmHg 89%
04:00 +7°C° 0 mm 5 mps 752 mmHg 88%
05:00 +8°C° 0 mm 5 mps 753 mmHg 87%
06:00 +8°C° 0 mm 6 mps 753 mmHg 85%
07:00 +9°C° 0 mm 6 mps 754 mmHg 81%
08:00 +11°C° 0 mm 6 mps 754 mmHg 77%
09:00 +13°C° 0 mm 6 mps 755 mmHg 73%
10:00 +13°C° 0.1 mm 5 mps 755 mmHg 73%
11:00 +14°C° 0.1 mm 5 mps 755 mmHg 72%
12:00 +14°C° 0.1 mm 5 mps 756 mmHg 71%
13:00 +14°C° 0.3 mm 5 mps 756 mmHg 72%
14:00 +14°C° 0.3 mm 4 mps 756 mmHg 72%
15:00 +15°C° 0.3 mm 4 mps 756 mmHg 73%
16:00 +14°C° 0.2 mm 4 mps 756 mmHg 74%
17:00 +14°C° 0.2 mm 4 mps 757 mmHg 76%
18:00 +14°C° 0.2 mm 4 mps 757 mmHg 78%
19:00 +12°C° 0 mm 4 mps 757 mmHg 83%
20:00 +11°C° 0 mm 3 mps 758 mmHg 87%
21:00 +9°C° 0 mm 3 mps 758 mmHg 92%
22:00 +9°C° 0 mm 3 mps 758 mmHg 93%
23:00 +8°C° 0 mm 3 mps 758 mmHg 94%

11 July, Saturday

Time Temperature Precipitation Wind Pressure Humidity
00:00 +7°C° 0 mm 3 mps 759 mmHg 95%
01:00 +7°C° 0 mm 3 mps 759 mmHg 95%
02:00 +7°C° 0 mm 3 mps 759 mmHg 95%
03:00 +7°C° 0 mm 3 mps 759 mmHg 95%
04:00 +7°C° 0 mm 3 mps 759 mmHg 94%
05:00 +8°C° 0 mm 2 mps 759 mmHg 94%
06:00 +8°C° 0 mm 2 mps 759 mmHg 93%
07:00 +10°C° 0 mm 3 mps 759 mmHg 88%
08:00 +11°C° 0 mm 3 mps 759 mmHg 83%
09:00 +13°C° 0 mm 3 mps 760 mmHg 78%
10:00 +13°C° 0 mm 3 mps 760 mmHg 74%
11:00 +15°C° 0 mm 2 mps 760 mmHg 71%
12:00 +16°C° 0 mm 2 mps 760 mmHg 68%
13:00 +16°C° 0 mm 2 mps 760 mmHg 69%
14:00 +16°C° 0 mm 2 mps 760 mmHg 69%
15:00 +16°C° 0 mm 2 mps 760 mmHg 70%
16:00 +16°C° 0 mm 2 mps 760 mmHg 73%
17:00 +16°C° 0 mm 2 mps 760 mmHg 77%
18:00 +16°C° 0 mm 2 mps 760 mmHg 80%
19:00 +14°C° 0 mm 2 mps 760 mmHg 84%
20:00 +13°C° 0 mm 2 mps 760 mmHg 88%
21:00 +10°C° 0 mm 2 mps 760 mmHg 92%
22:00 +11°C° 0 mm 1 mps 760 mmHg 93%
23:00 +11°C° 0 mm 1 mps 760 mmHg 93%

12 July, Sunday

Time Temperature Precipitation Wind Pressure Humidity
00:00 +10°C° 0 mm 1 mps 760 mmHg 93%
01:00 +10°C° 0 mm 1 mps 760 mmHg 92%
02:00 +10°C° 0 mm 2 mps 760 mmHg 91%
03:00 +10°C° 0 mm 2 mps 760 mmHg 90%
04:00 +10°C° 0 mm 2 mps 760 mmHg 89%
05:00 +12°C° 0 mm 2 mps 760 mmHg 88%
06:00 +12°C° 0 mm 2 mps 760 mmHg 87%
07:00 +13°C° 0 mm 2 mps 760 mmHg 84%
08:00 +13°C° 0 mm 3 mps 760 mmHg 81%
09:00 +13°C° 0 mm 3 mps 760 mmHg 77%
10:00 +14°C° 0 mm 3 mps 760 mmHg 77%
11:00 +14°C° 0 mm 3 mps 760 mmHg 77%
12:00 +16°C° 0 mm 3 mps 760 mmHg 77%
13:00 +17°C° 0 mm 3 mps 760 mmHg 77%
14:00 +17°C° 0 mm 3 mps 760 mmHg 78%
15:00 +18°C° 0 mm 3 mps 760 mmHg 78%
16:00 +18°C° 0 mm 3 mps 760 mmHg 80%
17:00 +18°C° 0 mm 3 mps 760 mmHg 81%
18:00 +18°C° 0 mm 3 mps 760 mmHg 82%
19:00 +17°C° 0 mm 3 mps 760 mmHg 85%
20:00 +16°C° 0 mm 2 mps 759 mmHg 88%
21:00 +15°C° 0 mm 2 mps 759 mmHg 91%
22:00 +14°C° 0 mm 2 mps 759 mmHg 92%
23:00 +14°C° 0 mm 2 mps 759 mmHg 93%
Show more